Regional Weather Roundup
Issued by NWS Newport/Morehead, NC

Current Version | Previous Version | Text Only | Print | Product List | Glossary On
Versions: 1 2 3 4 5 6 7 8 9 10 11 12 13 14 15 16 17 18 19 20 21 22 23 24 25 26 27 28 29 30 31 32 33 34 35 36 37 38 39 40 41 42 43 44 45 46 47 48 49 50
000 ASUS42 KMHX 281810 RWRMHX WEATHER ROUNDUP FOR EASTERN NORTH CAROLINA NATIONAL WEATHER SERVICE NEWPORT/MOREHEAD CITY NC 100 PM EST WED JAN 28 2015 NOTE: "FAIR" INDICATES FEW OR NO CLOUDS BELOW 12,000 FEET WITH NO SIGNIFICANT WEATHER AND/OR OBSTRUCTIONS TO VISIBILITY NCZ015>017-031-032-045>047-102-103-281900- NORTH COAST CITY SKY/WX TMP DP RH WIND PRES REMARKS EDENTON SUNNY 39 13 35 N14 30.20F ELIZABETH CITY SUNNY 38 15 39 N12 30.19F KITTY HAWK CLEAR 36 19 48 NW8G17 30.16S MANTEO SUNNY 36 18 48 N13G22 30.17F $$ NCZ045>047-081-094-103-104-281900- CENTRAL COAST CITY SKY/WX TMP DP RH WIND PRES REMARKS FRISCO SUNNY 39 26 59 N9G20 30.16S SWANQUARTER NOT AVBL $$ NCZ095-097-098-100-101-281900- SOUTHERN COAST CITY SKY/WX TMP DP RH WIND PRES REMARKS BEAUFORT SUNNY 42 21 43 N14 30.18S CEDAR ISLAND NOT AVBL JACKSONVILLE SUNNY 42 17 36 N14G22 30.20F PINEY ISLAND N/A N/A N/A N/A MISG 30.17F WILMINGTON SUNNY 44 21 40 N13G20 30.20F $$ NCZ011>013-027>030-043-044-078>080-089-090>093-098-281900- COASTAL PLAIN CITY SKY/WX TMP DP RH WIND PRES REMARKS AHOSKIE SUNNY 38 9 30 N7 30.23S CLINTON SUNNY 42 16 34 N9 30.23F ELIZABETHTOWN SUNNY 43 15 32 NW7 30.22F GOLDSBORO SUNNY 41 13 32 N8G17 30.21F GREENVILLE SUNNY 41 12 30 N6 30.23F HAVELOCK SUNNY 43 17 35 N17 30.19F KENANSVILLE SUNNY 40 15 37 NW9 30.23F KINSTON SUNNY 41 14 33 N12 30.23F NEW BERN SUNNY 43 14 31 NW13G21 30.20F RICHLANDS SUNNY 41 16 36 N9G20 30.21F ROCKY MOUNT SUNNY 42 11 28 N9G18 30.24F WASHINGTON SUNNY 40 10 29 NW12 30.21S WHITEVILLE SUNNY 42 16 34 N8 30.22F $$ AMZ130-135-150-152-154-156-158-170-250-252-270-ANZ085-086-088-633-658-670-281900- MARINE OBSERVATIONS STATION/POSITION TIME TEMP WIND PRES WAVE SWELL AIR SEA DIR/SP/G HT/PER HT/PER (UTC) (F) (DEG/KT/KT) (MB) (FT/S) (FT/S) CHESAPEAKE LIGHT 1700 31 330/ 23/ 25 1022.3 64 E VA BEACH 1800 35 51 330/ 21/ 25 1019.4 9/13 7/13 DUCK 1800 34 42 340/ 16/ 19 1020.7 2 E DUCK 1800 43 N/A 7/13 3/13 10 NE DUCK 1800 46 N/A 8/13 5/13 OREGON INLET 1800 35 42 340/ 17/ 21 1021.2 13E OREGON INLT 1800 45 N/A 10/12 7/12 HATTERAS CG 1800 37 45 360/ 15/ 20 1021.5 DIAMOND BUOY 1800 37 57 340/ 23/ 29 1020.0 9/11 7/11 17 S OCRACOKE NOT AVBL CAPE LOOKOUT 1700 38 360/ 12/ 16 1021.7 BEAUFORT LAB 1800 40 46 360/ 11/ 17 1020.9 27 SE WRIGHTSVLE NOT AVBL 5 SE WRIGHTSVLE 1700 39 53 360/ 17/ 19 1022.7 225 S CAPE HAT 1737 56 72 330/ 23/ 31 1016.6 10/ 8 7/13 41 SE CHARLESTON 1800 41 67 10/ 16/ 21 1023.1 5/ 6 2/13 $$

USA.gov is the U.S. government's official web portal to all federal, state and local government web resources and services.